Location: Belfast
(54.5830°N, 5.9330°W)
Time: 12:54:50
(UTC+01:00)

ISS - Pass Details

Date: 25 May 2018
Orbit: 402 x 407 km, 51.6° (Epoch: 20 May)

Event Time Altitude Azimuth Distance (km) Brightness Sun altitude
Rises 02:37:31 0° 276° (W) 2,321 -0.1 -12.7°
Reaches altitude 10° 02:40:00 10° 257° (WSW) 1,458 -1.3 -12.6°
Enters shadow 02:40:44 14° 246° (WSW) 1,262 -1.7 -12.6°
